Theta_e
282 281 282 281 281 278 277 275 273 271 272 272 272 274 281 281 282 282 282 282 282 282 283 283 283 284 283 283 284 283 283 283 280 280 277 279 278 278 281 279 280 281 279
279 280 279 280 278 274 272 270 271 271 270 272 275 281 281 281 281 281 280 281 281 281 282 282 282 283 282 283 283 282 282 283 282 280 280 277 277 277 277 276 281 282 279
277 277 277 275 276 272 270 270 273 274 273 273 281 280 281 281 281 281 281 281 281 281 281 282 282 282 281 281 281 281 281 282 282 281 281 281 276 277 277 278 279 279 281
275 275 275 274 274 272 273 273 275 274 273 276 280 281 281 281 281 280 281 280 280 281 282 283 282 281 281 280 280 280 281 280 281 280 280 280 274 277 275 277 278 278 279
273 273 273 272 270 269 269 268 269 271 273 272 271 278 280 281 281 280 280 280 280 281 282 282 282 282 283 281 279 277 279 279 279 279 278 278 276 275 276 275 276 276 277
272 272 271 271 269 269 268 267 268 268 268 268 278 278 278 280 282 283 282 280 281 281 281 280 281 281 282 283 284 284 280 278 277 277 277 277 278 277 275 274 271 271 272
272 273 273 274 273 272 272 272 271 268 268 268 268 270 274 278 281 283 284 282 281 281 280 280 280 281 280 279 281 284 284 285 284 279 278 278 277 279 277 273 272 272 273
273 274 275 274 273 273 273 272 271 273 276 277 276 276 276 276 281 282 283 282 281 281 280 280 279 279 278 278 279 278 279 280 282 283 282 281 280 279 278 277 275 272 271
274 273 273 273 273 273 273 272 272 273 273 275 278 278 278 279 281 282 282 281 281 280 281 281 280 279 281 283 280 278 278 279 282 285 285 285 286 286 284 275 270 271 268
273 273 273 273 273 272 273 273 274 274 275 276 276 276 276 276 280 281 282 281 280 280 280 281 282 281 283 284 281 279 277 278 278 276 277 281 283 283 286 282 277 271 270
273 273 273 272 272 272 273 273 272 272 273 271 273 273 274 275 276 280 281 281 280 279 280 280 280 283 284 285 285 282 280 280 278 279 275 276 276 276 277 277 278 278 277
271 270 270 270 271 272 270 271 269 269 272 272 272 273 273 275 277 279 280 281 281 279 278 279 279 282 283 284 283 284 285 284 281 279 276 276 275 276 276 277 278 279 280
267 267 267 268 271 271 268 268 268 270 273 273 274 274 274 276 276 280 280 281 282 279 279 279 281 282 283 283 284 284 282 281 280 279 278 277 276 278 276 275 274 273 273
266 267 268 268 268 268 271 271 268 266 269 272 272 272 273 273 274 273 274 272 276 275 275 272 276 279 280 280 279 278 275 276 277 277 276 274 272 271 276 275 273 274 276
265 266 267 268 266 267 269 268 269 270 269 264 263 266 264 265 274 276 274 270 268 273 267 262 263 264 268 269 270 268 268 273 276 273 276 276 276 277 278 273 277 274 275
266 267 267 267 265 266 266 265 272 274 276 277 277 274 271 276 278 279 278 277 277 277 260 258 260 262 264 265 264 264 264 268 269 268 268 269 270 270 270 272 274 275 273
262 264 264 265 265 264 264 263 262 266 273 275 276 277 277 277 277 277 277 278 277 275 258 256 258 260 260 262 261 262 262 263 262 263 263 263 264 264 267 267 269 272 272
260 262 261 260 259 259 259 260 259 259 261 262 268 272 274 275 276 276 276 276 262 262 255 257 260 260 260 261 259 260 260 260 260 261 261 261 262 263 263 265 267 267 267
260 260 260 259 258 260 260 259 258 257 259 262 258 265 266 273 275 275 276 266 262 262 260 260 261 260 260 259 260 259 258 260 259 258 257 257 257 258 259 259 261 264 265
258 259 259 258 258 258 260 260 259 259 259 260 261 263 256 256 256 261 261 257 258 261 259 260 262 260 260 260 259 259 258 255 257 257 258 257 257 255 259 258 256 258 258
257 257 260 258 258 258 258 258 260 259 261 262 263 264 269 261 262 263 261 259 262 263 263 262 263 262 261 260 258 258 257 260 258 259 259 258 256 257 258 259 256 256 257
255 255 254 257 257 258 259 260 260 260 261 261 263 264 270 267 266 266 263 263 263 263 265 264 263 263 262 260 260 259 259 259 258 257 257 257 256 256 255 254 256 255 254
252 253 254 255 258 259 260 261 261 261 261 262 262 262 262 261 262 263 264 264 264 263 262 263 263 263 259 260 261 261 260 260 261 258 257 257 256 257 256 257 257 254 253
254 255 256 258 257 258 260 261 261 261 261 261 261 261 262 262 262 263 263 263 263 262 262 262 261 261 261 259 260 259 261 261 256 257 257 256 256 255 254 251 254 254 253
255 255 255 258 259 259 260 260 260 261 261 261 261 261 262 262 262 263 262 262 263 263 262 260 261 260 259 259 258 259 260 263 259 257 257 255 256 257 256 255 254 250 251
255 255 257 258 258 259 259 259 259 259 259 259 260 260 260 260 261 261 262 263 263 263 263 263 263 262 262 262 261 262 260 262 261 261 259 257 255 256 255 256 256 254 255
Wind_Speed
6 5 5 5 5 5 5 4 4 4 4 4 5 4 4 4 4 4 4 5 6 6 6 5 7 5 4 4 4 4 4 4 5 3 1 2 3 3 4 3 3 3 3
5 5 5 5 5 5 4 4 4 4 3 5 4 4 5 5 5 6 6 5 6 6 7 6 7 4 6 5 4 5 5 4 3 8 1 2 3 4 4 3 3 2 2
4 5 4 4 5 4 4 4 4 4 4 3 5 6 6 6 7 6 6 6 6 7 7 7 6 7 6 4 5 4 4 4 4 4 4 1 2 2 3 2 2 2 2
5 4 4 4 4 4 4 5 5 5 5 5 6 6 6 6 7 7 7 6 7 7 7 7 7 8 7 5 7 7 5 5 4 5 6 7 2 4 1 2 2 1 3
5 4 3 2 1 2 3 3 3 4 5 5 4 4 6 6 5 7 7 7 7 8 8 7 7 7 10 11 6 6 7 7 6 7 7 6 3 2 3 2 1 2 3
5 5 4 3 3 2 2 2 2 4 4 3 8 7 8 6 12 14 10 7 7 8 7 6 6 6 11 18 18 18 11 9 10 7 6 7 7 4 3 3 2 2 3
4 4 4 4 3 3 4 4 4 5 3 4 3 4 7 9 14 14 14 6 7 7 7 7 7 8 11 10 14 19 18 20 18 8 10 9 5 5 4 3 3 3 4
5 4 3 3 4 3 3 3 3 3 4 5 6 7 7 7 16 15 14 8 7 8 8 11 11 10 8 9 8 9 10 10 12 10 11 9 8 5 5 5 5 3 2
4 4 3 3 3 2 2 2 2 2 2 2 4 4 6 7 11 12 12 7 8 9 8 10 10 11 13 18 10 10 9 10 11 19 20 20 19 19 12 3 2 3 2
5 4 3 3 3 1 1 2 1 1 3 2 2 3 4 4 9 12 10 5 7 6 7 8 14 14 18 19 11 9 10 11 6 4 3 10 14 11 17 9 5 4 3
3 4 3 3 2 1 1 1 1 2 2 2 3 4 5 5 5 10 11 6 4 4 5 5 4 12 15 16 18 9 11 8 9 9 5 5 5 5 4 4 7 7 7
2 3 3 2 1 1 2 1 2 1 1 3 3 3 3 4 6 5 6 9 9 5 6 4 4 13 15 16 13 13 15 13 5 5 4 6 6 6 6 6 8 9 8
3 2 1 1 1 1 1 1 1 1 2 2 2 1 1 1 2 4 1 3 7 5 2 6 12 13 15 12 13 13 8 4 5 7 8 7 5 7 6 3 3 3 3
3 2 1 2 2 1 1 1 2 1 1 1 1 1 1 2 1 1 1 3 5 4 4 3 6 10 12 10 6 6 1 3 4 5 4 3 2 1 4 4 3 3 4
2 2 2 2 1 2 2 2 3 3 4 3 3 2 1 3 2 4 4 1 2 5 4 3 3 3 3 3 2 1 2 4 5 3 4 5 4 4 6 3 5 4 6
2 2 2 2 1 1 1 2 5 7 8 11 11 6 4 9 12 12 9 10 11 11 3 1 2 2 2 2 2 2 1 0 1 1 2 1 2 2 2 2 2 3 3
4 3 2 2 2 2 2 2 2 4 8 10 12 13 13 11 12 12 13 13 13 10 2 3 3 3 3 3 3 2 3 3 1 1 1 2 1 2 1 2 2 3 3
4 4 3 3 3 2 2 2 1 2 3 4 7 9 11 13 14 14 14 14 3 3 2 3 5 5 4 4 3 3 3 3 2 2 2 2 2 2 1 1 1 2 2
4 4 4 3 3 4 2 2 2 3 5 6 3 7 7 14 15 16 16 4 5 5 5 5 6 5 5 4 5 4 4 4 4 3 3 3 2 1 2 2 2 3 2
5 7 4 2 2 3 3 4 4 5 5 5 5 6 2 1 2 4 4 3 4 6 4 6 6 5 5 5 5 5 4 4 4 4 5 4 4 3 4 4 3 3 3
3 3 6 3 4 4 4 5 5 5 6 6 8 6 13 5 7 7 6 6 8 8 8 7 7 7 6 6 5 5 5 6 5 5 5 4 3 4 4 4 3 3 3
4 3 3 4 3 4 6 5 6 6 7 8 8 8 18 9 8 8 7 8 8 9 8 8 7 7 7 7 7 6 7 7 6 5 5 5 4 4 3 3 3 3 3
3 3 3 3 5 6 6 7 7 8 8 8 8 7 6 7 8 9 10 9 8 7 6 7 8 8 5 6 6 7 7 8 8 5 6 5 5 5 4 4 4 3 3
3 5 5 6 4 6 7 8 7 8 8 8 8 8 8 8 9 10 9 8 8 8 8 7 8 9 7 6 6 6 7 6 4 6 7 5 5 5 4 4 4 5 4
4 4 5 7 7 7 8 8 8 8 8 8 8 8 8 8 9 9 8 8 8 8 9 7 7 8 10 11 8 9 9 13 8 7 5 5 6 7 5 4 4 3 4
5 6 7 7 7 8 8 8 8 8 8 8 8 8 8 8 8 8 8 8 8 8 8 7 8 11 11 9 10 10 10 12 10 10 6 5 6 5 4 6 7 3 4
Wind_Direction
122 122 135 145 153 142 142 148 151 146 148 155 160 164 189 208 204 204 206 210 224 232 230 230 240 216 217 200 201 204 218 223 249 285 318 317 316 285 299 310 290 311 294
125 121 128 130 138 146 150 170 159 176 175 176 171 193 214 204 205 207 206 208 221 234 223 221 224 214 214 201 204 207 214 214 233 257 283 301 260 263 256 282 272 280 282
128 135 136 146 158 172 171 179 180 182 188 192 212 220 217 210 211 210 211 206 220 233 233 229 227 208 212 210 214 207 212 223 228 246 262 240 281 296 312 276 256 288 270
128 137 157 175 182 180 188 189 184 189 190 203 211 214 215 214 215 212 212 213 218 234 234 229 224 209 210 210 234 223 210 217 221 238 254 261 219 280 277 263 315 323 307
136 139 153 177 170 141 144 163 169 181 202 207 205 225 234 222 218 214 212 216 223 226 232 229 221 218 218 222 216 210 212 224 229 232 241 249 248 270 234 253 240 316 291
133 139 148 145 148 173 181 195 193 218 214 199 226 227 230 234 234 238 219 214 218 231 226 221 230 237 246 242 241 228 208 205 218 220 227 232 234 213 204 206 176 72 317
130 141 144 149 159 187 189 183 210 216 197 207 228 229 248 247 245 242 245 217 214 212 223 233 240 243 241 241 252 252 247 236 224 216 231 227 227 203 194 201 206 172 207
129 122 132 143 143 143 158 185 207 208 210 199 211 213 228 242 249 247 244 244 228 224 232 248 241 240 224 222 234 241 244 241 242 242 241 242 233 210 204 192 200 199 306
129 156 155 147 144 147 163 211 224 188 218 229 245 236 223 233 249 249 243 231 230 240 234 241 237 242 241 247 234 239 247 247 243 245 245 251 253 255 236 152 219 130 276
138 127 150 153 132 143 244 248 225 186 244 243 260 252 256 251 266 258 252 237 235 231 231 236 233 242 250 249 243 235 243 252 246 243 244 262 266 257 251 224 192 181 178
129 127 126 98 102 171 88 36 302 302 334 311 270 266 258 244 250 259 258 259 246 238 236 238 231 252 264 262 252 238 238 247 250 254 231 231 239 242 238 211 191 204 223
135 112 85 76 49 83 105 1 287 200 237 265 257 280 274 254 231 246 241 250 251 238 242 241 242 262 266 265 265 263 266 261 248 236 226 239 234 235 229 214 215 220 229
97 94 79 1 287 230 191 270 297 324 217 249 254 262 278 260 259 308 36 303 284 255 217 251 264 269 267 269 273 270 272 271 250 240 247 245 222 224 221 227 231 200 221
115 117 205 205 214 251 200 223 203 250 280 255 240 305 292 298 187 281 327 360 320 328 329 331 304 298 279 273 268 269 253 223 249 255 244 234 237 228 217 203 206 197 216
156 212 225 203 225 252 246 206 219 221 193 210 225 206 195 296 246 251 253 219 244 269 316 18 353 329 292 273 260 256 280 273 250 224 240 255 234 229 232 197 223 200 207
205 215 199 200 207 246 256 293 293 270 250 244 252 240 235 244 258 267 263 275 276 278 36 321 293 281 266 264 246 273 289 250 287 357 327 280 265 262 237 207 166 197 185
213 241 267 269 254 253 240 222 302 329 313 289 270 257 256 250 257 259 268 270 269 281 144 235 238 244 251 251 243 231 241 244 226 232 229 263 285 298 265 236 218 195 214
218 234 228 233 239 252 242 245 204 227 275 289 284 278 275 271 267 266 267 274 320 310 193 223 242 235 237 235 234 231 256 272 271 251 262 253 249 201 232 271 260 223 215
226 232 226 230 224 232 240 242 231 244 251 262 280 284 277 278 279 276 267 239 225 235 230 242 234 236 238 228 231 230 224 229 224 229 239 225 235 192 254 233 235 247 206
228 240 231 234 243 258 244 245 244 243 252 254 261 262 243 55 295 261 242 240 247 251 227 232 244 227 229 228 230 224 232 233 235 227 235 229 235 211 230 222 209 204 214
224 227 233 233 231 230 232 231 239 233 249 254 257 249 255 223 242 242 239 224 235 241 245 234 237 235 226 224 222 220 219 236 220 226 228 233 214 231 218 218 207 203 189
215 224 218 237 235 239 244 239 244 242 250 257 267 263 276 274 267 260 243 241 235 232 236 237 236 231 223 214 217 216 222 228 226 217 223 224 217 228 213 206 203 197 188
215 237 250 252 246 253 254 246 243 246 252 252 256 262 255 254 256 260 262 263 256 244 233 235 242 249 220 220 212 213 217 222 225 189 205 213 214 221 202 215 198 199 182
222 231 241 252 239 245 252 256 250 242 243 248 250 249 250 252 257 260 258 258 257 253 249 238 234 238 237 223 220 215 225 229 190 198 190 194 211 206 194 195 195 199 185
230 235 236 253 255 254 255 250 249 249 251 253 255 253 255 258 263 264 261 257 259 258 250 239 244 243 238 239 226 219 220 232 211 193 190 192 208 201 203 197 185 179 163
239 241 251 251 250 248 246 251 252 249 250 251 251 252 253 255 257 261 263 263 262 259 256 251 245 239 247 242 240 236 227 227 224 214 191 191 203 210 188 206 201 174 170